TimeEDT,TemperatureF,Dew PointF,Humidity,Sea Level PressureIn,VisibilityMPH,Wind Direction,Wind SpeedMPH,Gust SpeedMPH,PrecipitationIn,Events,Conditions,WindDirDegrees,DateUTC
12:53 AM,60.1,55.0,83,29.62,10.0,South,15.0,26.5,0.02,,Overcast,190,2013-11-01 04:53:00
1:11 AM,60.8,55.4,82,29.62,10.0,South,15.0,24.2,N/A,,Overcast,190,2013-11-01 05:11:00
1:53 AM,59.0,55.0,87,29.59,8.0,South,13.8,20.7,0.00,Rain,Light Rain,180,2013-11-01 05:53:00
2:14 AM,59.0,55.4,88,29.57,8.0,South,17.3,21.9,0.01,Rain,Light Rain,180,2013-11-01 06:14:00
2:23 AM,59.0,55.4,88,29.56,8.0,South,12.7,20.7,0.01,Rain,Light Rain,180,2013-11-01 06:23:00
2:31 AM,59.0,55.4,88,29.56,8.0,South,17.3,23.0,0.01,Rain,Light Rain,180,2013-11-01 06:31:00
2:53 AM,59.0,55.0,87,29.55,7.0,South,20.7,32.2,0.03,Rain,Light Rain,190,2013-11-01 06:53:00
3:14 AM,59.0,55.4,88,29.54,9.0,South,17.3,26.5,0.00,Rain,Light Rain,190,2013-11-01 07:14:00
3:53 AM,59.0,55.0,87,29.50,8.0,South,15.0,24.2,0.01,Rain,Light Rain,180,2013-11-01 07:53:00
4:01 AM,59.0,55.4,88,29.51,8.0,South,17.3,23.0,0.01,Rain,Light Rain,190,2013-11-01 08:01:00
4:53 AM,60.1,55.9,86,29.46,10.0,South,23.0,33.4,0.02,Rain,Light Rain,180,2013-11-01 08:53:00
5:53 AM,61.0,55.9,83,29.44,8.0,South,24.2,33.4,0.01,Rain,Light Rain,190,2013-11-01 09:53:00
6:53 AM,61.0,57.0,87,29.42,5.0,South,20.7,29.9,0.09,Rain,Rain,190,2013-11-01 10:53:00
7:53 AM,62.1,57.9,86,29.40,5.0,South,18.4,28.8,0.11,Rain,Light Rain,190,2013-11-01 11:53:00
8:51 AM,62.6,59.0,88,29.40,10.0,South,23.0,32.2,0.02,Rain,Light Rain,190,2013-11-01 12:51:00
8:53 AM,63.0,59.0,87,29.38,9.0,South,20.7,32.2,0.02,Rain,Light Rain,190,2013-11-01 12:53:00
9:03 AM,64.4,59.0,83,29.39,10.0,South,19.6,27.6,0.00,,Overcast,190,2013-11-01 13:03:00
9:53 AM,64.0,59.0,84,29.36,5.0,South,25.3,34.5,0.01,Rain,Light Rain,180,2013-11-01 13:53:00
10:03 AM,64.4,60.8,88,29.36,2.5,South,18.4,28.8,0.01,Rain,Light Rain,190,2013-11-01 14:03:00
10:22 AM,64.4,60.8,88,29.36,4.0,South,19.6,32.2,0.01,Rain,Light Rain,190,2013-11-01 14:22:00
10:53 AM,64.0,60.1,87,29.37,1.0,South,19.6,34.5,0.18,Rain,Heavy Rain,190,2013-11-01 14:53:00
10:55 AM,64.4,60.8,88,29.38,3.0,SSW,18.4,34.5,0.01,Rain,Rain,200,2013-11-01 14:55:00
11:06 AM,64.4,59.0,83,29.40,3.0,SSW,11.5,24.2,0.02,Rain,Light Rain,200,2013-11-01 15:06:00
11:53 AM,62.1,54.0,75,29.39,10.0,SSW,15.0,24.2,0.05,Rain,Light Rain,200,2013-11-01 15:53:00
12:53 PM,62.1,53.1,72,29.34,10.0,South,12.7,20.7,0.01,,Clear,190,2013-11-01 16:53:00
1:53 PM,66.0,53.1,63,29.33,10.0,SSW,13.8,27.6,0.01,,Mostly Cloudy,210,2013-11-01 17:53:00
2:53 PM,66.0,51.1,59,29.33,10.0,SSW,12.7,21.9,N/A,,Mostly Cloudy,200,2013-11-01 18:53:00
3:53 PM,68.0,46.9,47,29.35,10.0,South,11.5,26.5,N/A,,Scattered Clouds,190,2013-11-01 19:53:00
4:53 PM,66.9,45.0,45,29.37,10.0,SW,15.0,24.2,N/A,,Partly Cloudy,220,2013-11-01 20:53:00
5:53 PM,66.0,43.0,43,29.41,10.0,SSW,8.1,19.6,N/A,,Partly Cloudy,210,2013-11-01 21:53:00
6:53 PM,64.0,37.9,38,29.44,10.0,WSW,9.2,21.9,N/A,,Partly Cloudy,250,2013-11-01 22:53:00
7:53 PM,63.0,37.0,38,29.49,10.0,WSW,10.4,21.9,N/A,,Clear,250,2013-11-01 23:53:00
8:53 PM,61.0,39.0,44,29.54,10.0,WNW,6.9,18.4,N/A,,Clear,290,2013-11-02 00:53:00
9:53 PM,59.0,39.0,48,29.57,10.0,WNW,6.9,-,N/A,,Clear,290,2013-11-02 01:53:00
10:53 PM,46.0,39.9,79,29.61,10.0,Calm,Calm,-,N/A,,Clear,0,2013-11-02 02:53:00
11:53 PM,54.0,39.9,59,29.62,10.0,West,9.2,-,N/A,,Clear,260,2013-11-02 03:53:00